GFSGL_925_spd_159.txt.gz
Wind_Speed
45 44 42 38 42 44 44 41 42 42 44 41 40 37 33 28 24 23 21 19 22 21 17 16 18 13 17 16 17 19 21 20 10 15 24 26 23 31 35 35 33 30 27
44 44 39 45 45 43 45 45 46 44 42 43 41 37 33 29 29 27 25 23 23 21 17 16 17 15 19 18 20 18 20 20 19 16 21 27 29 29 30 36 37 34 29
43 40 42 45 44 45 43 42 43 43 41 41 39 36 35 32 32 26 27 24 21 18 18 19 18 17 20 18 18 18 19 19 19 18 17 24 27 29 29 34 35 34 32
40 41 42 46 45 46 45 42 45 41 43 42 39 37 36 33 30 28 25 22 22 21 20 20 19 17 15 15 16 18 16 14 17 19 19 21 25 31 27 26 29 32 35
35 40 42 41 44 47 47 43 44 41 41 42 41 38 34 32 32 31 27 25 23 22 21 20 19 17 12 15 19 21 17 12 17 20 21 19 23 29 26 27 25 29 32
29 25 35 49 50 50 50 44 41 41 40 45 44 40 36 33 31 31 31 31 27 24 18 15 18 19 17 14 14 18 17 16 17 19 18 23 24 27 26 30 26 23 13
40 35 26 69 56 42 45 44 40 38 46 45 43 42 40 36 32 30 27 24 21 18 16 17 22 20 20 19 18 17 19 16 15 19 24 24 24 27 32 29 29 26 23
42 40 48 50 45 40 41 37 39 41 42 46 46 44 41 33 27 24 24 23 23 21 21 23 26 24 24 26 24 25 25 24 25 24 22 28 24 31 27 30 28 26 24
42 42 53 50 42 42 39 37 36 41 40 42 44 43 39 31 26 27 29 28 27 25 23 24 27 26 25 24 25 26 26 25 24 23 22 24 23 26 27 34 30 26 24
46 43 46 42 44 44 39 36 36 40 41 44 41 36 32 31 23 23 23 25 25 25 23 21 22 23 22 23 25 25 27 26 26 26 26 27 29 28 33 35 34 23 25
46 39 44 42 44 43 40 37 39 39 40 43 41 34 30 27 24 18 19 24 24 21 22 19 17 18 20 20 23 24 25 24 25 26 27 29 29 31 35 35 35 31 30
45 44 44 44 40 39 38 36 37 40 40 38 41 36 31 30 27 26 28 23 24 25 19 16 15 17 19 21 23 25 24 25 28 29 26 28 28 32 34 34 31 33 31
46 44 41 42 39 37 38 37 35 33 35 31 32 31 32 28 27 26 26 23 19 16 12 13 17 21 21 21 22 28 26 27 30 29 26 27 29 30 31 33 30 33 30
44 43 41 39 38 34 32 31 32 31 31 30 29 28 30 28 27 23 20 17 15 17 20 22 23 22 22 22 20 26 28 27 28 28 27 27 29 33 31 33 31 34 29
41 38 36 37 38 37 36 34 33 30 33 30 30 32 32 29 24 20 19 18 19 22 22 23 23 23 23 23 22 25 30 29 30 29 31 28 29 30 31 30 31 32 28
39 35 35 35 34 35 40 44 37 33 32 31 31 33 32 31 27 23 21 23 23 21 23 23 23 23 23 21 23 24 29 28 28 28 29 28 29 29 29 29 31 30 30
40 36 36 35 33 33 32 35 40 40 35 35 34 33 33 30 27 25 25 24 22 22 24 23 22 21 22 22 24 24 27 27 25 28 29 31 32 30 28 29 32 29 32
40 36 35 34 33 31 30 30 30 31 32 35 32 32 28 25 22 22 23 23 24 23 23 21 20 21 23 24 23 23 26 27 27 28 28 30 33 29 28 30 31 29 31
35 34 35 35 34 33 31 33 34 34 35 32 28 26 24 24 25 25 23 24 23 21 20 19 20 21 21 22 20 22 25 26 25 29 27 29 33 32 28 31 31 30 31
37 33 32 33 31 31 33 32 30 31 31 31 27 23 22 25 26 23 20 20 21 20 19 20 20 19 19 19 20 22 24 26 26 29 27 28 32 33 27 32 33 29 29
31 30 29 31 28 29 32 30 32 33 27 21 17 14 18 24 22 21 21 19 16 19 19 18 17 16 16 17 19 22 24 25 25 27 25 28 32 32 28 33 33 29 29
24 28 26 26 27 28 27 26 25 28 26 23 22 24 23 22 22 21 20 18 17 14 16 15 15 13 15 18 21 22 23 24 25 26 24 27 31 28 32 33 32 29 30
22 26 25 27 33 35 34 32 30 28 26 24 25 25 23 21 19 17 16 14 13 12 11 12 12 9 10 15 22 23 22 23 23 23 21 26 30 26 32 32 30 29 30
31 33 33 33 33 31 29 29 29 29 24 20 26 24 22 20 17 15 14 13 12 11 9 11 8 7 8 13 20 22 21 21 22 19 19 24 26 26 28 30 28 30 28
33 27 28 29 30 30 28 27 23 24 27 25 23 21 19 17 15 14 12 10 10 9 9 10 7 7 8 14 19 22 21 21 21 16 18 21 22 24 24 26 27 28 27
24 26 29 29 28 27 24 27 28 26 25 23 21 20 18 15 15 13 10 10 12 10 9 7 6 7 9 14 17 21 20 20 20 15 16 19 20 22 23 24 26 27 24

GFSGL_925_spd_162.txt.gz
Wind_Speed
41 41 43 41 40 42 39 39 43 42 45 46 44 41 38 36 32 30 28 26 25 23 20 19 20 15 17 16 16 16 18 15 4 7 13 18 20 25 28 30 33 31 30
36 43 42 43 44 40 39 38 46 45 41 45 46 42 38 34 33 32 30 26 25 24 21 20 20 17 19 17 16 18 18 18 13 7 14 22 24 26 27 31 35 32 30
37 39 41 39 44 40 35 38 42 44 42 43 45 42 37 36 34 31 30 28 27 25 22 22 19 17 18 15 14 14 13 14 14 13 12 22 22 25 29 33 33 34 32
37 39 41 43 44 39 39 45 48 44 45 44 41 39 37 35 35 34 32 31 29 26 23 20 19 18 16 15 16 14 13 14 16 19 20 18 20 25 24 25 31 33 34
35 39 40 42 40 43 40 44 50 46 41 44 41 37 35 36 36 35 33 32 30 28 23 23 21 17 16 15 17 17 14 16 18 21 18 14 18 24 25 27 24 27 31
37 38 42 41 45 45 45 45 43 44 49 45 41 36 31 34 35 35 35 32 28 27 25 24 21 17 16 16 19 20 18 16 19 17 18 16 20 24 27 28 25 21 8
27 35 41 47 48 45 47 51 50 43 46 45 42 37 39 37 35 34 33 31 30 27 25 25 27 24 21 21 23 23 23 24 22 19 23 18 21 26 27 27 27 24 20
24 20 32 53 52 50 47 49 47 46 45 42 44 44 42 38 35 33 32 34 35 32 30 28 27 25 23 22 21 22 23 22 23 21 21 19 19 23 25 26 25 25 22
38 38 36 44 55 58 50 42 49 43 41 44 46 45 42 36 32 35 36 37 36 33 30 27 25 25 23 23 23 25 24 22 19 18 21 17 18 23 28 30 27 23 21
48 41 36 45 43 56 60 39 45 43 43 46 44 39 38 40 35 35 35 37 35 30 26 23 22 20 22 23 24 23 23 23 22 25 25 23 23 26 29 31 32 23 19
39 38 47 53 45 47 53 47 46 41 42 45 43 40 39 37 34 32 32 35 33 28 24 22 20 19 24 24 22 22 22 19 23 24 26 28 28 30 33 31 31 33 26
42 36 43 48 42 45 50 43 44 45 41 37 37 35 34 32 30 27 31 31 28 27 23 22 22 22 24 24 21 18 22 23 28 26 27 28 29 31 32 32 29 31 26
32 33 43 44 43 43 46 43 40 37 37 32 31 33 35 36 32 31 28 25 24 26 25 27 26 20 19 22 22 22 25 28 28 27 25 27 28 29 31 32 30 31 27
38 34 42 44 42 39 36 34 36 33 31 29 30 31 34 37 31 28 26 26 30 31 28 27 24 21 18 20 25 25 26 24 24 27 28 29 31 32 31 31 30 32 28
40 36 36 37 38 38 34 31 32 27 30 33 31 34 37 33 28 27 28 30 29 28 27 25 22 22 20 23 27 26 23 25 28 30 31 31 31 29 32 30 30 29 27
39 34 34 36 36 37 40 39 31 33 37 40 39 39 35 32 29 29 30 28 26 23 26 25 24 23 24 25 24 22 24 26 27 28 31 32 32 31 30 29 30 29 28
40 36 35 35 35 34 33 35 36 37 36 37 37 37 33 33 33 32 30 28 25 24 27 25 26 25 23 21 21 23 25 26 25 28 31 32 33 33 28 27 30 29 29
39 38 34 33 34 33 32 32 33 34 33 36 33 32 32 33 31 29 28 28 27 25 26 26 26 22 20 20 22 24 25 26 26 28 31 31 32 34 29 27 30 28 30
35 33 34 33 33 34 32 31 30 33 35 35 31 29 30 31 30 28 26 28 28 27 26 24 21 19 19 20 23 23 24 26 25 27 30 30 31 34 31 28 29 28 30
33 32 34 35 32 33 33 32 30 32 32 35 34 35 36 33 32 29 26 27 26 26 23 22 20 20 21 22 23 23 24 26 25 25 27 29 29 32 31 31 31 28 29
30 30 31 31 30 31 34 32 31 31 33 34 35 32 29 30 28 27 26 25 24 21 19 19 20 21 22 24 23 23 23 24 23 23 26 28 27 31 30 31 32 29 27
25 26 29 31 31 32 32 36 36 34 31 32 33 31 29 29 27 26 24 23 21 18 17 18 18 17 22 24 23 22 22 23 22 22 24 26 27 30 29 31 32 30 28
27 31 31 32 33 35 35 33 31 31 35 36 34 32 30 28 27 25 23 20 17 16 17 17 15 16 19 22 22 21 21 22 19 19 21 23 26 27 26 28 30 30 30
31 33 33 33 33 34 35 34 35 37 35 34 32 29 27 24 23 21 19 17 16 16 15 13 13 13 16 18 20 18 18 18 16 16 18 20 23 24 24 25 28 27 28
39 38 37 36 36 35 37 35 32 35 34 31 29 26 23 22 19 18 16 15 14 12 11 11 9 10 13 16 18 17 17 17 16 17 17 17 19 20 20 22 25 25 27
34 34 33 34 35 37 31 29 35 32 30 28 26 24 22 21 18 16 15 13 11 9 8 7 6 8 11 14 16 15 16 16 17 17 16 17 19 20 19 20 23 25 26

GFSGL_925_spd_165.txt.gz
Wind_Speed
36 40 40 38 35 37 41 40 37 35 40 41 44 44 44 40 34 31 29 28 25 24 20 19 19 15 16 15 15 14 14 9 4 3 8 15 18 22 26 27 24 26 24
35 38 40 34 37 37 35 37 38 38 38 42 44 45 45 42 38 33 29 28 25 24 22 21 21 18 18 16 14 15 16 14 6 4 7 15 18 22 26 27 28 27 25
35 37 36 37 37 36 36 37 41 39 42 41 46 45 43 41 39 33 31 28 26 23 21 22 20 17 17 15 14 14 14 12 12 10 11 16 20 25 30 31 32 33 28
29 32 35 37 39 36 35 40 42 43 45 43 37 46 41 39 38 36 33 30 28 25 23 22 19 19 18 16 16 14 11 11 13 15 14 14 19 27 24 25 29 36 33
25 29 32 36 38 35 36 37 36 45 44 45 37 45 43 41 40 38 35 32 29 28 25 23 20 19 19 17 17 14 14 14 14 17 15 15 19 22 24 28 23 26 29
26 28 34 35 33 34 35 35 38 35 40 45 45 46 42 38 39 37 35 34 31 29 27 23 22 21 22 22 22 20 17 16 17 19 17 14 19 24 26 28 26 24 7
28 27 31 32 33 36 41 39 47 43 37 44 34 40 43 46 40 37 34 33 32 30 30 29 26 23 22 22 21 20 19 18 18 19 16 16 16 23 25 27 28 24 20
28 28 31 39 41 42 49 45 43 49 46 42 43 44 44 42 39 35 35 36 36 33 30 28 26 24 21 17 17 19 19 18 19 18 14 16 18 20 22 25 26 26 25
30 35 41 47 46 47 46 46 49 47 44 50 45 44 45 38 38 39 40 40 37 34 30 27 26 24 20 17 19 20 21 22 19 17 14 15 16 20 23 27 28 23 19
33 40 46 51 49 48 50 49 49 57 50 48 43 45 42 41 37 40 40 42 37 33 27 26 24 24 21 20 23 22 26 22 22 22 21 21 22 25 25 26 30 24 20
38 46 42 40 40 49 48 48 53 54 53 42 48 41 39 38 38 37 37 37 35 32 30 28 25 23 22 22 24 25 22 19 23 24 25 26 27 28 29 27 28 29 24
43 48 47 41 36 46 46 47 50 59 47 43 42 38 37 34 34 34 32 31 30 32 33 29 25 23 23 23 24 24 22 25 25 28 30 29 28 29 31 30 29 27 21
42 43 47 49 46 45 47 40 42 48 44 38 37 33 31 35 35 32 28 28 30 34 31 27 24 24 23 24 25 24 24 28 27 28 27 25 24 26 30 32 29 29 26
45 38 43 48 43 42 39 38 37 42 39 35 34 30 33 37 33 29 30 33 33 33 28 24 24 27 24 25 27 25 26 25 25 24 25 26 28 31 30 30 27 28 24
42 38 42 40 41 38 33 30 34 32 37 38 33 35 36 34 34 36 36 34 33 31 29 25 27 23 29 27 25 25 23 23 24 23 27 30 31 32 28 27 26 26 24
37 34 36 38 38 38 42 41 35 38 39 39 42 42 36 38 38 35 32 30 29 25 28 29 23 28 27 23 23 23 20 20 23 25 27 29 29 29 25 26 27 26 26
38 33 36 37 37 38 38 38 37 41 41 40 40 40 41 39 35 33 32 29 24 25 32 25 27 25 23 21 18 18 18 20 23 24 26 27 27 28 25 26 28 26 29
36 34 34 35 36 37 37 36 36 36 34 35 37 39 38 36 34 31 31 29 30 29 26 27 23 20 20 15 15 18 19 21 23 24 23 25 27 29 27 27 28 27 28
34 35 38 39 38 38 37 35 34 33 34 37 41 39 35 33 32 29 25 30 30 28 25 22 19 18 14 14 16 20 20 20 20 22 22 26 27 30 29 29 28 28 28
36 39 39 38 36 37 35 34 33 30 31 31 35 36 34 33 32 30 27 27 27 24 20 20 18 16 15 17 18 19 19 18 18 21 22 26 26 28 31 32 32 28 28
34 39 37 34 33 33 32 31 29 30 31 32 35 33 30 32 32 29 25 23 22 20 19 18 17 17 17 18 18 18 17 16 17 21 23 26 26 28 30 30 32 29 28
31 31 30 31 32 32 32 32 32 33 35 36 34 32 29 30 29 26 23 20 18 17 16 16 17 18 19 17 17 16 16 16 19 22 23 25 25 26 28 30 31 31 29
29 30 30 29 33 36 37 36 37 36 36 34 32 30 27 27 26 24 22 20 18 17 16 13 15 16 16 16 15 15 16 18 20 21 22 23 24 25 26 28 30 32 30
28 29 29 29 31 36 36 36 36 34 34 33 31 29 26 25 25 23 20 18 16 15 13 12 12 14 15 14 12 14 16 17 18 19 20 21 22 22 23 25 28 30 31
32 33 31 32 33 34 35 34 34 34 32 30 29 28 26 24 22 20 17 14 13 12 11 9 10 11 11 12 13 15 16 18 19 19 19 20 20 20 21 22 25 28 30
35 35 34 34 35 36 38 35 33 31 30 28 26 25 23 20 18 17 15 13 12 11 9 6 5 7 10 12 14 15 16 18 20 20 20 20 20 19 20 20 23 26 27

GFSGL_925_spd_168.txt.gz
Wind_Speed
26 32 32 32 36 35 34 32 36 33 35 38 41 40 40 36 39 36 30 28 26 23 20 18 17 13 14 12 11 10 9 7 3 2 5 11 14 22 23 21 23 24 21
27 27 32 33 34 34 32 32 36 36 36 38 41 41 40 42 39 41 37 30 29 26 21 20 19 16 15 12 11 13 13 11 4 2 5 12 15 23 23 24 25 26 21
26 25 31 28 34 35 34 34 34 37 37 37 39 39 39 42 35 38 37 32 28 24 22 21 20 16 14 11 11 11 10 9 10 6 7 12 14 22 26 24 26 32 24
29 22 27 29 35 37 35 34 34 38 40 35 35 36 36 38 39 38 35 34 31 25 22 21 18 17 15 12 11 9 9 9 11 11 8 9 13 20 18 18 21 24 27
25 21 24 30 37 38 36 36 39 40 40 42 43 40 39 39 42 38 33 32 32 31 26 23 20 19 15 13 11 11 9 10 11 10 8 6 11 15 19 19 20 22 22
23 23 23 30 34 38 36 37 40 40 46 46 44 47 45 35 33 38 40 32 31 31 28 25 22 20 17 15 14 10 11 12 13 9 8 7 10 13 17 21 21 23 7
25 25 20 31 34 36 36 40 41 42 45 48 47 49 51 46 38 30 31 32 31 30 29 27 26 21 16 14 13 11 13 12 13 12 8 9 11 16 19 18 21 21 16
23 20 20 25 30 37 44 46 45 46 46 42 51 53 46 45 41 35 35 34 35 30 28 27 24 19 14 11 11 14 14 15 14 11 11 12 14 16 16 17 17 19 19
19 16 20 32 38 41 44 45 47 50 47 45 41 47 55 40 48 42 41 39 39 32 28 25 22 19 14 11 13 16 16 16 11 10 11 12 15 18 20 20 21 23 18
16 16 30 43 45 43 46 47 45 53 48 57 46 50 49 51 46 48 45 44 41 34 28 25 21 19 15 15 17 16 19 15 15 16 16 20 23 25 24 22 19 20 21
25 30 38 42 45 46 42 45 45 52 53 44 46 48 44 49 48 46 44 43 41 36 31 26 22 18 19 20 18 18 17 15 19 22 23 24 27 27 26 27 24 19 19
42 41 41 43 41 45 46 39 43 51 52 52 44 36 35 42 43 41 40 40 36 37 32 26 22 20 19 21 20 18 18 21 24 26 26 26 24 29 32 30 26 24 19
48 45 45 44 43 46 47 39 38 49 45 41 40 37 33 37 39 37 37 36 34 35 29 26 22 22 21 22 19 20 23 25 28 28 20 21 27 28 28 28 26 27 23
49 49 50 49 43 42 47 37 36 47 45 38 36 36 35 37 39 39 40 36 34 32 28 25 24 23 22 20 20 23 27 28 28 21 19 27 29 28 25 26 27 29 24
44 46 48 49 47 43 38 34 38 34 41 42 36 38 40 32 33 40 40 36 32 29 28 25 24 24 22 19 21 26 28 27 25 24 31 27 25 25 26 27 25 25 25
42 39 42 51 43 42 44 44 42 44 38 39 40 43 39 44 40 36 33 32 29 25 28 27 24 20 14 22 20 23 24 24 24 30 27 24 24 23 23 27 27 26 25
43 42 44 48 40 40 40 42 41 43 43 45 44 45 45 43 37 36 34 31 26 25 29 25 19 14 22 21 22 19 20 23 26 27 23 22 24 21 24 27 27 26 27
43 43 43 39 38 37 39 40 38 37 36 38 42 43 41 38 35 33 31 30 29 26 24 20 20 21 22 21 19 18 21 25 24 24 24 25 24 19 22 26 26 26 26
38 37 39 38 38 41 40 39 38 37 36 36 41 41 37 35 34 31 27 30 29 24 23 22 22 21 21 20 19 20 21 22 23 24 25 24 24 20 21 23 24 25 25
39 40 40 40 40 40 37 38 37 36 34 32 31 32 37 33 32 30 28 28 28 26 24 23 22 21 20 19 19 20 20 22 25 24 24 23 23 20 19 21 23 25 25
34 36 40 39 38 37 36 35 35 34 31 31 32 35 32 34 31 28 27 26 26 25 25 24 21 19 19 19 20 20 20 22 21 21 21 21 22 22 19 19 21 23 24
33 34 34 36 36 35 34 34 34 34 32 35 36 33 31 32 30 27 25 24 23 23 21 20 19 20 20 19 19 20 21 21 20 19 19 21 21 20 19 18 20 23 24
33 34 33 33 35 38 35 33 33 34 35 35 35 35 32 31 28 26 25 23 21 19 18 18 20 20 18 17 19 20 19 19 18 19 20 19 19 18 18 17 19 21 24
34 35 34 32 32 33 34 34 36 37 35 34 34 32 30 29 27 25 23 21 19 18 16 17 18 18 16 16 17 17 16 17 18 17 17 17 16 16 16 16 18 20 22
33 34 34 34 33 33 35 33 34 34 33 32 32 30 27 26 24 21 19 17 16 15 14 13 15 16 16 14 13 14 16 18 17 16 17 15 15 15 16 15 17 19 21
38 37 35 37 36 35 35 34 33 32 31 30 28 26 24 22 20 18 16 14 13 11 10 11 13 13 11 11 13 14 15 16 17 18 16 15 15 14 14 14 17 18 19

GFSGL_925_spd_171.txt.gz
Wind_Speed
23 19 17 18 25 26 28 29 29 30 28 31 31 28 26 25 26 24 30 32 33 29 25 18 14 8 13 11 9 10 9 6 2 2 4 9 10 15 16 16 16 18 19
23 22 19 17 18 24 27 31 29 29 37 32 28 32 25 26 31 32 30 30 32 27 23 20 15 9 15 12 11 12 10 7 3 4 5 8 10 15 19 19 21 19 21
20 21 19 17 17 25 28 30 30 29 32 36 35 32 32 33 31 35 36 25 34 28 19 23 12 12 14 12 11 10 7 5 4 5 7 9 12 15 19 18 21 22 22
17 19 19 19 20 26 30 29 30 30 29 35 36 34 35 37 33 34 39 38 32 31 23 17 11 12 14 14 10 9 6 4 5 6 7 9 12 18 16 21 24 23 26
19 17 19 22 21 27 29 29 28 32 37 41 42 38 37 41 40 37 39 34 33 33 23 15 15 15 17 13 10 9 7 4 5 8 10 11 15 20 21 23 22 24 25
19 18 18 20 20 26 29 29 30 35 41 45 44 44 41 42 46 43 40 36 35 31 25 21 17 19 17 14 13 10 7 7 10 10 11 13 15 17 20 23 23 24 15
21 21 20 18 18 23 28 32 37 38 41 42 42 45 43 50 46 42 41 43 37 33 26 21 18 17 15 14 13 11 12 13 12 10 11 11 13 17 19 22 22 23 22
23 21 20 16 16 17 34 38 38 39 41 43 44 46 49 48 48 46 46 43 38 29 25 22 20 17 13 13 12 10 10 10 13 10 9 8 10 13 15 17 19 22 21
20 20 18 14 17 26 36 38 38 38 37 39 49 49 50 48 49 49 46 38 41 30 24 21 19 18 13 12 12 11 11 13 12 11 10 11 13 16 17 17 19 20 21
17 20 13 12 31 38 41 39 38 43 42 40 40 45 45 49 48 48 47 45 34 27 21 22 18 18 15 14 12 10 16 14 10 9 13 13 14 14 14 15 18 19 21
19 14 12 28 37 42 39 38 42 38 43 43 47 42 42 47 44 42 42 40 34 28 24 20 20 19 19 19 17 17 13 9 10 12 13 14 15 16 17 16 16 18 18
20 15 31 35 36 38 43 38 41 41 43 45 50 38 39 40 40 42 36 39 33 30 24 22 23 23 22 23 21 16 18 13 14 14 16 17 18 19 20 20 19 19 14
24 37 38 39 39 43 49 44 40 30 42 41 44 43 38 33 42 40 40 38 35 29 26 28 26 25 24 22 21 20 17 17 15 16 18 17 17 18 19 23 21 20 16
45 43 44 44 41 41 41 42 39 32 29 42 40 41 40 37 37 41 40 38 36 35 29 22 22 24 22 18 15 19 18 16 18 18 16 15 17 20 23 25 22 23 20
46 45 44 43 44 41 37 37 44 34 26 32 35 44 44 37 34 39 35 30 26 28 24 21 19 17 15 16 19 16 17 18 19 18 15 18 20 24 25 25 24 23 23
42 41 42 42 42 43 47 47 45 41 31 34 34 41 36 43 44 39 36 34 31 26 24 22 18 16 19 16 14 15 17 19 18 15 17 20 23 24 24 24 26 27 25
45 44 45 44 41 45 45 48 44 37 37 35 39 46 49 47 43 39 35 32 28 24 24 20 19 18 17 14 14 14 16 15 13 16 18 21 22 21 22 24 26 28 25
45 45 46 45 44 42 45 44 40 38 36 37 42 45 44 41 38 35 33 29 25 22 22 22 19 15 15 13 15 15 14 13 15 17 20 20 20 21 23 25 26 27 26
45 45 47 46 45 45 42 39 39 38 37 37 39 41 39 38 36 32 26 23 23 23 20 20 16 14 14 16 14 13 13 15 17 19 18 19 20 21 22 24 25 26 25
46 48 47 43 39 39 40 40 38 36 35 33 31 31 34 29 25 22 22 23 22 21 18 16 15 16 17 14 13 12 14 16 17 16 18 18 19 20 21 23 24 25 25
41 38 40 40 39 40 38 36 34 33 32 30 30 26 27 26 25 24 22 22 20 17 15 16 18 17 15 14 12 14 16 15 15 16 17 18 18 20 20 21 23 24 24
37 37 37 37 37 35 34 33 32 32 31 30 28 30 28 25 24 24 22 20 17 16 17 17 17 15 15 13 12 14 14 15 17 17 17 17 17 18 19 21 23 22 23
37 37 36 35 36 37 33 32 32 32 31 30 29 26 24 23 24 21 20 18 17 18 18 16 16 15 13 12 13 14 15 15 15 16 16 16 17 18 19 20 21 22 23
36 36 36 34 33 33 33 32 31 30 29 28 26 24 23 23 22 20 19 18 19 17 17 16 17 14 12 12 13 14 17 17 14 15 15 15 16 17 18 18 20 20 22
34 34 34 33 32 32 32 30 28 27 27 26 25 24 22 22 21 20 20 17 16 17 16 14 12 12 13 14 14 17 19 20 21 19 14 15 15 15 15 16 19 19 21
32 31 31 30 29 28 29 28 26 25 26 25 24 22 21 20 20 19 17 16 15 13 13 12 11 12 11 14 16 17 19 20 21 20 15 14 14 13 13 15 18 18 20

GFSGL_925_spd_174.txt.gz
Wind_Speed
17 16 16 14 13 15 18 24 24 22 23 24 26 28 29 26 24 25 22 23 24 25 25 26 24 17 12 11 6 5 7 6 3 4 4 7 10 13 16 18 17 18 18
20 18 16 15 14 14 18 22 23 23 24 23 26 21 24 23 21 25 26 26 28 32 31 28 25 19 17 6 7 9 7 5 4 4 6 9 11 13 17 18 19 17 19
21 19 18 16 16 16 18 19 22 24 24 25 20 28 30 24 20 17 24 34 35 31 29 25 23 22 13 6 7 6 5 4 6 6 8 9 11 14 17 16 18 18 19
22 21 19 19 18 18 18 20 21 23 25 24 24 25 28 26 24 26 35 39 37 30 27 27 29 20 11 10 8 5 6 3 5 8 7 9 11 15 16 20 22 21 23
24 23 21 20 21 21 21 20 20 20 17 26 31 30 36 39 42 31 36 38 36 37 29 23 25 25 18 12 7 6 3 4 7 6 8 9 13 17 18 21 21 23 23
25 24 23 21 22 22 20 18 15 21 31 34 34 37 35 30 50 45 41 40 38 38 30 26 23 24 20 14 12 8 8 7 10 8 8 10 12 16 18 21 20 22 15
25 25 23 22 22 23 19 16 27 33 37 39 38 35 35 42 47 56 46 41 35 34 35 32 25 21 17 14 14 13 14 15 12 9 8 10 13 16 18 21 21 22 20
25 24 22 22 24 22 15 24 30 37 38 39 36 37 39 43 51 51 46 41 30 27 27 29 28 19 13 12 11 10 10 10 9 6 7 8 9 14 17 18 19 22 19
24 23 23 23 23 19 24 32 34 34 30 35 41 42 40 40 49 50 41 36 32 27 29 25 23 17 16 15 11 11 9 7 6 12 14 15 17 19 22 20 20 20 18
24 22 19 22 24 21 29 31 33 38 34 35 36 36 39 42 44 43 37 36 33 31 28 26 22 18 17 15 10 9 9 8 8 8 10 11 12 16 15 16 18 19 19
19 18 20 23 15 31 33 34 37 41 39 36 38 35 35 32 42 39 35 35 36 33 28 24 19 17 17 16 14 10 7 8 7 8 10 14 14 16 17 17 16 18 18
19 21 16 34 34 37 41 38 40 41 41 38 41 35 27 27 33 33 34 39 36 35 28 25 23 21 21 20 16 17 14 9 9 11 14 15 16 17 17 17 17 18 14
20 33 36 37 36 36 44 42 40 38 39 35 36 35 29 28 34 39 40 42 42 37 28 29 27 25 22 21 21 17 13 12 13 14 15 15 16 15 16 18 18 19 15
39 40 40 41 37 35 34 34 38 38 37 34 30 24 31 34 30 31 34 40 42 43 31 21 19 19 17 15 13 14 16 16 14 14 14 14 15 17 19 22 22 22 19
42 40 39 38 40 40 36 30 32 32 41 45 26 20 28 35 25 33 35 34 30 31 26 20 17 15 14 14 14 16 15 14 15 14 14 15 16 19 22 23 23 20 21
39 35 37 39 40 41 50 49 42 50 48 44 34 24 33 44 38 37 36 39 34 25 21 20 18 16 14 14 15 14 14 14 13 13 15 17 19 22 22 22 22 20 20
42 39 39 41 41 43 44 47 43 46 44 38 34 34 47 41 39 42 39 33 27 22 22 20 18 16 16 15 12 13 13 11 12 15 17 18 20 21 21 21 22 22 20
42 43 42 39 41 43 41 44 45 40 37 34 39 42 41 41 40 38 34 29 25 22 22 19 17 17 15 13 14 11 11 13 15 17 18 19 20 20 20 20 22 23 20
42 40 42 45 45 46 41 40 41 39 36 34 38 39 39 36 31 27 23 24 24 21 19 20 18 15 14 13 10 11 14 15 16 17 18 19 19 19 19 20 21 20 20
46 49 48 47 45 41 38 40 39 36 34 33 32 31 31 27 24 23 23 23 21 20 21 18 16 14 12 12 12 14 14 16 16 16 18 17 17 18 19 21 21 21 22
44 44 47 43 41 39 38 37 35 34 33 32 30 26 25 25 25 25 23 21 21 20 18 16 14 13 13 13 15 15 14 15 14 16 16 15 17 18 19 20 20 21 22
42 40 39 39 39 38 37 35 35 34 32 32 31 27 27 27 26 24 23 22 20 18 16 15 15 14 15 15 14 14 14 14 15 16 16 16 17 17 19 20 20 21 21
39 39 38 37 38 37 35 35 34 34 33 32 29 27 25 25 24 24 23 20 17 16 16 15 15 14 14 14 13 14 12 13 14 15 15 15 16 18 18 19 20 22 22
39 39 39 36 35 35 35 34 34 32 31 29 28 27 25 24 24 22 20 18 18 17 16 16 15 14 14 12 13 13 13 15 12 12 14 15 16 17 17 19 20 21 21
36 37 37 34 33 34 34 33 31 30 29 28 27 26 24 23 21 19 18 18 17 15 15 14 15 15 12 13 14 15 19 18 18 15 14 15 16 17 17 18 20 19 21
33 33 32 32 31 31 30 30 29 28 27 27 25 24 22 20 19 18 16 15 15 15 15 15 13 12 10 14 16 17 17 19 18 20 16 16 17 16 17 18 19 19 20